MST,Max TemperatureF,Mean TemperatureF,Min TemperatureF,Max Dew PointF,MeanDew PointF,Min DewpointF,Max Humidity, Mean Humidity, Min Humidity, Max Sea Level PressureIn, Mean Sea Level PressureIn, Min Sea Level PressureIn, Max VisibilityMiles, Mean VisibilityMiles, Min VisibilityMiles, Max Wind SpeedMPH, Mean Wind SpeedMPH, Max Gust SpeedMPH,PrecipitationIn, CloudCover, Events, WindDirDegrees
2012-11-1,42,38,33,37,34,30,100,90,79,29.94,29.87,29.81,10,6,0,14,5,16,0.01,7,Fog-Rain,70
2012-11-2,41,37,33,36,34,32,100,90,79,30.19,30.07,29.89,10,8,0,8,6,9,0.05,8,Fog-Rain-Snow,283
2012-11-3,47,41,34,39,35,32,100,88,76,30.18,30.09,29.98,10,6,0,17,7,22,0.01,6,Fog-Rain,77
2012-11-4,55,46,36,39,36,31,85,64,43,30.25,30.16,29.98,10,10,10,21,6,25,0.00,2,,248
2012-11-5,68,50,32,43,37,29,82,60,37,30.18,30.02,29.91,10,10,10,37,15,49,0.00,0,,199
2012-11-6,50,38,26,35,31,26,92,73,54,30.25,30.09,29.80,10,10,10,9,4,10,0.00,1,,86
2012-11-7,61,45,29,43,31,22,89,58,26,30.08,29.81,29.66,10,10,10,33,12,45,T,3,,258
2012-11-8,33,29,25,30,27,23,92,82,72,30.19,30.04,29.95,10,4,0,28,12,33,0.22,8,Fog-Rain-Snow,73
2012-11-9,25,21,16,21,19,13,96,90,84,30.10,29.94,29.86,10,2,0,24,15,30,0.28,8,Fog-Snow,62
2012-11-10,16,12,7,10,4,0,88,81,73,30.24,30.11,29.98,10,6,1,18,11,23,0.02,8,Snow,307
2012-11-11,14,3,-8,5,-3,-11,90,83,76,30.27,30.22,30.06,10,10,9,17,11,20,0.00,2,,251
2012-11-12,35,25,14,26,20,8,81,71,61,30.21,30.16,30.12,10,10,10,24,15,29,0.00,1,,225
2012-11-13,37,31,25,28,25,21,88,79,70,30.20,30.14,30.09,10,10,10,22,12,25,0.00,2,,234
2012-11-14,39,29,19,30,24,17,91,78,64,30.28,30.14,30.05,10,8,1,23,8,28,0.00,2,,241
2012-11-15,36,25,14,27,18,12,92,81,70,30.31,30.22,30.05,10,10,9,12,4,13,0.00,1,,84
2012-11-16,43,29,14,32,23,21,88,79,70,30.02,30.00,29.89,10,10,10,9,3,9,0.00,2,,78
2012-11-17,37,31,24,31,26,21,92,81,70,30.01,29.90,29.72,10,10,10,15,8,18,0.00,0,,97
2012-11-18,45,34,22,34,26,20,92,75,57,30.01,29.83,29.62,10,10,10,22,8,26,0.00,0,,228
2012-11-19,54,38,22,32,26,17,84,61,38,30.00,29.88,29.70,10,10,10,36,11,45,0.00,0,,171
2012-11-20,60,48,36,39,34,31,92,64,36,29.78,29.75,29.71,10,10,10,24,13,31,T,1,,216
2012-11-21,51,37,23,40,30,19,100,92,83,30.02,29.77,29.63,10,8,3,25,7,31,0.13,7,Rain-Snow,282
2012-11-22,24,11,-2,19,8,-5,95,81,67,30.66,30.36,29.99,10,5,0,22,9,25,0.11,6,Fog-Snow,298
2012-11-23,42,22,2,30,16,0,92,78,64,30.59,30.26,29.87,10,10,10,18,7,23,0.00,3,,94
2012-11-24,41,33,25,33,28,23,100,83,65,30.11,30.03,29.93,10,6,0,16,6,18,T,7,Fog-Rain-Snow,251
2012-11-25,29,19,9,28,21,9,100,92,84,30.36,30.15,29.99,10,3,0,16,6,18,0.07,8,Fog-Snow,64
2012-11-26,28,20,11,23,16,8,100,89,78,30.37,30.23,30.08,10,7,0,13,6,15,0.00,2,Fog,257
2012-11-27,34,20,6,25,12,3,100,85,69,30.26,30.11,30.01,10,7,0,10,3,13,0.00,1,Fog,339
2012-11-28,35,26,17,26,20,14,92,81,70,30.11,30.03,29.84,10,10,10,20,7,24,0.00,2,,60
2012-11-29,30,26,21,25,21,19,96,89,81,29.95,29.90,29.82,10,7,4,17,7,21,0.00,4,,71
2012-11-30,33,26,19,31,23,18,96,87,78,29.82,29.71,29.61,10,7,5,15,5,17,0.03,4,Rain,358